Regional Weather Roundup
Issued by NWS Wakefield, VA

Home | Current Version | Previous Version | Text Only | Print | Product List | Glossary On
Versions: 1 2 3 4 5 6 7 8 9 10 11 12 13 14 15 16 17 18 19 20 21 22 23 24 25 26 27 28 29 30 31 32 33 34 35 36 37 38 39 40 41 42 43 44 45 46 47 48 49 50
000
ASUS41 KAKQ 231710
RWRAKQ

REGIONAL WEATHER ROUNDUP
NATIONAL WEATHER SERVICE WAKEFIELD VA
1200 PM EST SUN NOV 23 2014

Note: "fair" indicates few or no clouds below 12,000 feet with no
significant weather and/or obstructions to visibility. * = Denotes
station may not report precipitation (e.g., rain,snow,etc.),
thunder or fog.

VAZ042-051-052>054-056-231800-
NORTHERN VIRGINIA

CITY           SKY/WX    TMP DP  RH WIND       PRES   REMARKS
WASH NATIONAL  CLOUDY    51  24  34 S7        30.20F
DULLES         PTSUNNY   44  23  43 S3        30.17F
FORT BELVOIR   CLOUDY    49  23  36 VRB3      30.19F
QUANTICO       CLOUDY    47  34  60 S3        30.19F
FREDERICKSBRG* CLOUDY    57  28  33 S8        30.17F
STAFFORD*      CLOUDY    52  23  32 CALM      30.21F
WARRENTON      CLOUDY    53  32  45 SW5       30.16F
CULPEPER*      CLOUDY    52  25  35 SW5       30.17F
MANASSAS*      SUNNY     48  25  40 CALM      30.18F
LEESBURG*      PTSUNNY   46  28  49 MISG      30.18F
WINCHESTER     SUNNY     54  18  24 SW9       30.13F
FRONT ROYAL*   CLOUDY    54  30  40 S6        30.12F
LURAY*         CLOUDY    55  32  41 SW3       30.13F
$$

VAZ048-049-060>072-079>083-231800-
CENTRAL AND SOUTH CENTRAL VIRGINIA

CITY           SKY/WX    TMP DP  RH WIND       PRES   REMARKS
RICHMOND       CLOUDY    53  36  52 SW3       30.20F
CHESTERFIELD*  CLOUDY    54  30  40 S6        30.20F
PETERSBURG*    CLOUDY    50  36  57 CALM      30.20F
HANOVER        CLOUDY    54  29  38 S5        30.21F
TAPPAHANNOCK*  CLOUDY    55  35  46 S3        30.20F
QUINTON*       FAIR      49  36  61 CALM      30.21F
CHARLOTTSVILLE CLOUDY    51  26  37 S6        30.16F
GORDONSVILLE*  CLOUDY    52  26  35 SW6       30.16F
ORANGE*        CLOUDY    54  28  37 S9        30.18F
LOUISA*        CLOUDY    57  27  30 SW3       30.16F
BUMPASS*       FAIR      54  29  38 S6        30.18F
FARMVILLE*     CLOUDY    53  25  34 CALM      30.17F
CREWE*         CLOUDY    49  29  45 CALM      30.18F
FORT PICKETT*  CLOUDY    51  39  64 S5        30.18F
LUNENBURG*     CLOUDY    50  37  60 CALM      30.17F
CHASE CITY*    PTSUNNY   51  40  67 CALM      30.17F
CLARKSVILLE*   CLOUDY    48  39  71 CALM      30.16F
SOUTH HILL*    CLOUDY    50  42  73 SE3       30.22F
LAWRENCEVILLE* CLOUDY    51  42  72 CALM      30.18F
$$

VAZ088>098-231800-
SOUTHEAST VIRGINIA

CITY           SKY/WX    TMP DP  RH WIND       PRES   REMARKS
NORFOLK        CLOUDY    58  44  60 S7        30.20F
VIRGINIA BEACH CLOUDY    61  47  59 S5        30.21F
NORFOLK NAVAL  CLOUDY    59  44  57 CALM      30.22F
WEST POINT*    CLOUDY    54  34  47 CALM      30.23F
SALUDA*        FAIR      52  41  65 CALM      30.21F
NEWPORT NEWS   CLOUDY    57  43  59 S6        30.21F
LANGLEY AFB    CLOUDY    54  43  67 S3        30.22F
FORT EUSTIS    CLOUDY    52  38  60 SE5       30.20F
WILLIAMSBURG*  CLOUDY    54  41  62 CALM      30.22F
HR EXEC AP*    CLOUDY    55  43  62 S6        30.22F
FRANKLIN*      CLOUDY    54  43  66 CALM      30.20F
WAKEFIELD      CLOUDY    52  41  66 S3        30.20F
$$

VAZ020-022-025-037-045-231800-
WEST CENTRAL AND SOUTHWEST VIRGINIA

CITY           SKY/WX    TMP DP  RH WIND       PRES   REMARKS
STAUNTON*      CLOUDY    54  30  40 CALM      30.15F
WAYNESBORO*    CLOUDY    56  35  46 SE3       30.13F
HOT SPRINGS VA CLOUDY    46  37  69 S8G16     30.09F
LYNCHBURG      CLOUDY    48  25  40 S3        30.17F
DANVILLE       CLOUDY    50  28  42 CALM      30.18F
SOUTH BOSTON*  CLOUDY    46  29  53 CALM      30.18F
MARTINSVILLE   DRIZZLE   49  32  50 CALM      30.18F
ROANOKE        CLOUDY    44  25  47 SE3       30.16F
BLACKSBURG     CLOUDY    52  41  66 CALM      30.13F
DUBLIN*        CLOUDY    46  30  53 CALM      30.13F
MARION*        DRIZZLE   52  45  77 NE6       30.10F
HILLSVILLE*    DRIZZLE   46  41  82 S6        30.12F
RICHLANDS*     CLOUDY    56  45  66 SE10      30.01F
WISE*          CLOUDY    54  41  62 S10G17    29.98F
ABINGDON*      CLOUDY    59  47  64 S10       30.02F
$$

MDZ021>025-VAZ099-100-231800-
SOUTHERN MARYLAND AND THE DELMARVA PENINSULA

CITY           SKY/WX    TMP DP  RH WIND       PRES   REMARKS
PATUXENT RIVER CLOUDY    53  32  44 VRB6      30.20F
BAY BRIDGE APT   N/A     50  23  34 S8        30.19F
LEONARDTOWN    CLOUDY    54  32  43 S8        30.20F
DOVER          CLOUDY    52  32  46 S8        30.17F
GEORGETOWN     CLOUDY    55  40  56 SW12      30.22F
EASTON         NOT AVBL
CAMBRIDGE      CLOUDY    54  36  50 S6        30.20F
SALISBURY      CLOUDY    54  41  61 S7        30.22F
OCEAN CITY     CLOUDY    50  39  66 VRB5      30.23F
WALLOPS ISLAND CLOUDY    52  43  71 VRB3      30.24F
ACCOMACK*      CLOUDY    54  43  66 CALM      30.23F
$$

NCZ012>017-030>032-231800-
NORTH CENTRAL AND EASTERN NORTH CAROLINA

CITY           SKY/WX    TMP DP  RH WIND       PRES   REMARKS
ROANOKE RAPIDS CLOUDY    52  41  66 CALM      30.19F
RALEIGH        CLOUDY    53  43  68 E5        30.15F
ELIZABETH CITY CLOUDY    61  48  62 SE7       30.21F
AHOSKIE*       CLOUDY    55  44  67 S6        30.19F
EDENTON*       CLOUDY    56  47  72 SE5       30.20F
CURRITUCK*     CLOUDY    59  47  63 CALM      30.22F
KILL DEVIL HLS CLOUDY    63  51  65 SE5       30.22F
MANTEO         CLOUDY    59  50  72 CALM      30.24F
CAPE HATTERAS  LGT RAIN  63  58  83 S5        30.22F
TARBORO*       CLOUDY    52  42  68 CALM      30.19F
GOLDSBORO      LGT RAIN  52  52 100 CALM      30.14F
WASHINGTON     CLOUDY    56  49  77 E5        30.19F
GREENVILLE     DRIZZLE   55  45  67 CALM      30.19F
NEW BERN       LGT RAIN  57  53  86 CALM      30.20F
WILMINGTON     LGT RAIN  62  61  96 E7        30.14F FOG
$$

VAZ048-231800-
ELSEWHERE

CITY           SKY/WX    TMP DP  RH WIND       PRES   REMARKS
HARRISBURG PA  PTSUNNY   49  23  36 E5        30.14F
BALTIMORE      PTSUNNY   48  22  35 S5        30.17F
ANNAPOLIS      CLOUDY    47  34  60 CALM      30.19F
ANDREWS AFB    CLOUDY    50  25  36 S8        30.18F
PHILADELPHIA   PTSUNNY   51  25  36 S9        30.18F
WILDWOOD NJ*   CLOUDY    54  36  50 S10       30.18F
HENDERSON NC   CLOUDY    52  42  69 S5        30.16F
GREENSBORO     CLOUDY    51  39  63 NE3       30.13F
ROCKY MOUNT    CLOUDY    52  42  69 CALM      30.17F
$$

VAZ100-231800-
MARINE

STATION/POSITION TIME  TEMP    WIND        PRES    WAVE   SWELL
                       AIR SEA DIR/SP/G            HT/PER HT/PER
                 (UTC) (F)     (DEG/KT/KT) (MB)    (FT/S) (FT/S)
CAPE MAY NJ      1700   51 46  190/  6/  8 1022.6F
LEWES DE         1700   55 46  210/  6/ 11 1022.6F
15NM E FENWICK I 1700   53 53              1023.7F   2/ 5
OCEAN-CITY-INLET 1700   49 49  220/  7/  8 1023.6S
WACHAPREAGUE VA  1700   49 41  210/  3/  4 1024.0S
THOMAS POINT MD  1700   47 48  180/ 10/ 11 1023.4F
GOOSES REEF MD   1700   48 47  170/  6/ 10 1022.9F   1/ 3
COVE POINT MD    1700   49     180/ 11/ 12 1023.0S
SOLOMONS ISLAND  1700      48                N/A
BISHOPS HEAD MD  1700   45 40  170/  8/  9   N/A
PINEY POINT MD   1700          190/  3/  3   N/A
POTOMAC MD       1700   50 48  190/  2/  4 1022.1F   1
CAMBRIDGE MD     1700   52 42  190/  4/  7 1022.9F
LEWISETTA VA     1700   52 43  200/  5/  6 1022.6F
RAPPAHANNOCK LGT 1700          170/  7/  7 1024.0F
STINGRAY PT      1700   48 48  150/  6/  8 1023.5F   0
YORK RVR RNG VA  1700   48     120/  4/  4 1022.7F
YORKTOWN VA      1700   50 50   70/  3/  5 1022.8F
JAMESTOWN VA     1700   48 47  100/  2/  4   N/A     0
DOMINION TERM VA 1700   47     130/  2/  3 1023.1F
KIPTOPEKE VA     1700      52  180/  7/  7   N/A
CHES BAY BRIDGE  1700   52 51  120/  3/  4 1022.7F
CAPE HENRY VA    1700   54     130/  6/  8 1022.0F
CHESAPEAKE LGHT  1600   54     150/  7/  8 1025.2F
WILLOUBY STN VA  1700   49      70/  1/  2 1021.7F
S CRANEY ISL VA  1700          240/  1/  2 1022.7F
CAPE HENRY BUOY  1600      55                N/A     1/ 9
1ST LANDING BUOY 1700   52 53  130/ 10/ 10 1022.6F   1
CAPE CHARLES BUO 1700      54                N/A     1/ 9   2/ 9
64NM E OF VA BCH 1700   64 64  170/ 12/ 14 1023.4F   2/ 8   2/ 8
DUCK PIER NC     1700   61 55  160/  7/  8 1023.1F
44100 DUCK FRF   1700      58                N/A     2/ 9
44056 DUCK FRF   1700      56                N/A     1/ 8
OREGON INLET NC  1700   62 49  110/  3/  4 1024.2F
HATTERAS NC      1700   65 53  170/  7/  9 1023.9F
DIAMOND SHLS NC  1700   70     150/ 12/ 14 1023.6F   3/ 8   2/ 8


USA.gov is the U.S. government's official web portal to all federal, state and local government web resources and services.